Карточка аэропорта UIUU

Внимание!
Информация на этой странице в стадии наполнения.
Если вы не увидели какой-то информации, или заметили неточность - пожалуйста сообщите нам!
Спасибо!
Команда RU-STAFF
Название аэропортаМухино
Название аэропорта (англ.)Mukhino
Превышение1699 ft. (517.9 m.)
Координаты51°48.45', 107°26.4'
Высота перехода1800m
Эшелон переходаFL090
Коды ответчика2701-2717
Зона ОрВДИркутск РПИ (UIII)
Данные METARUIUU 140200Z 17002MPS 110V220 9999 FEW050 19/10 Q1013 R26/60D NOSIG RMK QFE716/0955
Проноз погоды (TAF)UIUU 132000Z 1321/1421 33003MPS 9999 SCT040CB TEMPO 1321/1324 0700 FG VV002
NOTAMshow/hide NOTAM
AWOS   TABLE

Информация о ВПП

ВПП Длина ВПП (м.) Покрытие Курс ВПП Частота ILS
263400Цементобетон263110.3
083400Цементобетон83111.3

Диспетчерские позиции

Позывной Наименование органа УВД Частота
UIUU_APPУлан-Удэ-Подход129.300
UIUU_TWRУлан-Удэ-Вышка118.200



Спутниковое изображение